Printer-friendly version

IAU Minor Planet Center

Minor Planet Center

MPEC 2005-U100: 2005 UU6

The following Minor Planet Electronic Circular may be linked-to from your own Web pages, but must not otherwise be redistributed electronically.


Read MPEC 2005-U99 Read MPEC 2005-U101


M.P.E.C. 2005-U100                               Issued 2005 Oct. 31, 17:47 UT

     The Minor Planet Electronic Circulars contain information on unusual
         minor planets and routine data on comets.  They are published
   on behalf of Commission 20 of the International Astronomical Union by the
          Minor Planet Center, Smithsonian Astrophysical Observatory,
                          Cambridge, MA 02138, U.S.A.

                  Supported in part by the Brinson Foundation
                  Supported in part by the TABASGO Foundation
             Prepared using the Tamkin Foundation Computer Network

                              MPC@CFA.HARVARD.EDU
          URL http://cfa-www.harvard.edu/iau/mpc.html  ISSN 1523-6714

                                   2005 UU6

Observations:
     K05U06U* C2005 10 29.29942 01 48 07.92 +08 28 14.5          20.8 V EU100G96
     K05U06U  C2005 10 29.30722 01 48 09.00 +08 27 42.1          20.9 V EU100G96
     K05U06U  C2005 10 29.31490 01 48 10.11 +08 27 10.1          21.4 V EU100G96
     K05U06U  C2005 10 29.32279 01 48 11.19 +08 26 37.9          20.9 V EU100G96
     K05U06U  C2005 10 29.33601 01 48 13.10 +08 25 43.2          20.8 V EU100G96
     K05U06U  C2005 10 29.34351 01 48 14.14 +08 25 12.2          20.9 V EU100G96
     K05U06U  C2005 10 29.35099 01 48 15.19 +08 24 41.1          21.0 V EU100G96
     K05U06U  C2005 10 29.35848 01 48 16.30 +08 24 10.3          20.6 V EU100G96
     K05U06U  C2005 10 30.30675 01 50 42.97 +07 19 05.2          20.6 V EU100G96
     K05U06U  C2005 10 30.31476 01 50 44.05 +07 18 31.7          20.7 V EU100G96
     K05U06U  C2005 10 30.32272 01 50 45.20 +07 17 59.3          20.8 V EU100G96
     K05U06U  C2005 10 30.33069 01 50 46.35 +07 17 26.5          20.6 V EU100G96

Observer details:
G96 Mt. Lemmon Survey.  Observers E. J. Christensen, S. M. Larson,
    R. A. Kowalski.  Measurers E. C. Beshore, E. J. Christensen, G. J. Garradd,
    A. D. Grauer, R. E. Hill, R. A. Kowalski, S. M. Larson, R. H. McNaught.
    1.5-m reflector + CCD.

Orbital elements:
2005 UU6
Epoch 2005 Aug. 18.0 TT = JDT 2453600.5                 MPC
M 339.01114              (2000.0)            P               Q
n   0.25955982     Peri.  189.25964     +0.74667529     -0.64664946
a   2.4339467      Node   212.75445     +0.62726250     +0.76251133
e   0.4951884      Incl.   16.75272     +0.22139956     +0.02051679
P   3.80           H   22.9           G   0.15           U   8
Residuals in seconds of arc
051029 G96  0.2+  0.2+    051029 G96  0.2+  0.0     051030 G96  0.3+  0.2+
051029 G96  0.2-  0.0     051029 G96  0.1-  0.0     051030 G96  0.5-  0.3-
051029 G96  0.2+  0.3-    051029 G96  0.3-  0.1-    051030 G96  0.1-  0.1+
051029 G96  0.3-  0.1+    051029 G96  0.3+  0.1+    051030 G96  0.2+  0.1+

Ephemeris:
2005 UU6                 a,e,i = 2.43, 0.50, 17                  q = 1.2287
Date    TT    R. A. (2000) Decl.     Delta      r     Elong.  Phase     V
2005 10 27    01 42.23   +11 06.5    0.242    1.234   174.1     4.7    20.7
2005 11 06    02 07.75   -00 03.3    0.248    1.229   161.6    14.7    21.1
2005 11 16    02 32.02   -09 02.0    0.274    1.233   149.3    24.1    21.7
2005 11 26    02 54.05   -14 45.1    0.316    1.246   140.1    30.5    22.2

Kyle E. Smalley              (C) Copyright 2005 MPC           M.P.E.C. 2005-U100

Read MPEC 2005-U99 Read MPEC 2005-U101


Our Web policy. Index to the CBAT/MPC/ICQ pages.


Valid HTML 4.01!